Regional Weather Roundup
Issued by NWS

Home | Current Version | Previous Version | Text Only | Print | Product List | Glossary Off
Versions: 1 2 3 4 5 6 7 8 9 10 11 12 13 14 15 16 17 18 19 20 21 22 23 24 25 26 27 28 29 30 31 32 33 34 35 36 37 38 39 40 41 42 43 44 45 46 47 48 49 50

000
ASUS45 KSLC 221410
RWRUT

UTAH REGIONAL WEATHER ROUNDUP
NATIONAL WEATHER SERVICE SALT LAKE CITY UT
800 AM MDT FRI MAY 22 2015

UTZ001>011-023>025-221500-

NORTHERN UTAH

CITY           SKY/WX    TMP DP  RH WIND       PRES   REMARKS
BRIGHAM CITY   CLOUDY    51  46  82 NW3       29.93R
HILL AFB       PTSUNNY   51  42  73 E10       29.92S
LOGAN          CLOUDY    48  44  86 CALM      29.93R
OGDEN          PTSUNNY   52  44  74 S9        29.91R
PROVO AIRPORT  PTSUNNY   48  41  76 E8        29.94R
SALT LAKE CITY PTSUNNY   53  45  74 S7        29.91S
VERNAL         CLOUDY    50  45  83 SE6       29.99S
WENDOVER       CLOUDY    52  48  87 CALM      29.92S
HEBER CITY     CLOUDY    41  39  93 CALM      29.98S
WEST JORDAN    MOSUNNY   52  46  82 CALM      29.93S

$$

UTZ012>022-026-027-221500-

SOUTHERN/CENTRAL UTAH

CITY           SKY/WX    TMP DP  RH WIND       PRES   REMARKS
BLANDING       SUNNY     51  40  68 SE9       30.10S
BRYCE CANYON   MOSUNNY   40  28  62 CALM      30.02F
CEDAR CITY     PTSUNNY   52  29  41 SE6       29.93F
DELTA          CLOUDY    49  42  76 SE3       29.93S
HANKSVILLE     SUNNY     55  37  50 CALM      29.94R
MILFORD        MOSUNNY   56  35  45 SE3       29.91F
MOAB/CYNLANDS  MOSUNNY   57  44  62 E13       29.93R
PRICE          CLOUDY    49  40  71 N8        29.97F
ST GEORGE      CLOUDY    61  28  29 SW3       29.89R
KANAB          PTSUNNY   48  32  53 N3        29.99S

$$

REGIONAL REPORTS     COLORADO/ARIZONA

CITY           SKY/WX    TMP DP  RH WIND       PRES   REMARKS
CRAIG, CO      LGT RAIN  45  42  89 W14       30.03R
GRAND JUNCTION CLOUDY    51  46  83 E9        29.99R
RIFLE          CLOUDY    48  42  80 E6        30.03S
MONTROSE       PTSUNNY   50  42  74 SE3       30.04S
CORTEZ         SUNNY     53  39  59 SE15      30.04S
PAGE, AZ       NOT AVBL
GRAND CANYON   SUNNY     38  33  82 CALM      30.02S
KINGMAN        PTSUNNY   59  32  36 SE7       29.90R
FLAGSTAFF      CLOUDY    41  33  73 CALM      30.04R

$$

REGIONAL REPORTS    NEVADA/IDAHO/WYOMING

CITY           SKY/WX    TMP DP  RH WIND       PRES   REMARKS
LAS VEGAS, NV  PTSUNNY   62  40  44 S12       29.80R
ELY            CLOUDY    41  36  82 SE5       29.98R
ELKO           CLOUDY    48  44  86 SW5       29.94R
POCATELLO, ID  PTSUNNY   50  48  93 CALM      29.93R
BURLEY         CLOUDY    53  48  83 SW7       29.91R
EVANSTON, WY   PTSUNNY   41  38  89 CALM      30.00
ROCK SPRINGS   CLOUDY    44  40  85 NE6       30.00R
KEMMERER       CLOUDY    41  37  87 CALM      30.02S

$$



USA.gov is the U.S. government's official web portal to all federal, state and local government web resources and services.